Back to catalog

STARLINK-5070

AliveCommunicationsVLEO
NORAD 55654·PAYLOAD·🇺🇸 United States

Launched Feb 17, 2023 from Vandenberg Space Force Base

Loading…

Next Passes (next 24 hours)

TLE

FreshSource: CelesTrak SupGP

Epoch: Sep 14, 2026, 13:22 UTC

1 55654C 23021AC  26257.55743056 -.00031549  00000+0 -26449-2 0  2577
2 55654  70.0009  68.4144 0002794 262.9026 252.3467 14.98333056    11

Track STARLINK-5070 in real time with AllMySat

Download on the App Store